Regional Weather Roundup
Issued by NWS

Home | Current Version | Previous Version | Graphics & Text | Print | Product List | Glossary On
Versions: 1 2 3 4 5 6 7 8 9 10 11 12 13 14 15 16 17 18 19 20 21 22 23 24 25 26 27 28 29 30 31 32 33 34 35 36 37 38 39 40 41 42 43 44 45 46 47 48 49 50
194
ASUS43 KMPX 110510
RWRMN
WEATHER ROUNDUP FOR MINNESOTA
NATIONAL WEATHER SERVICE TWIN CITIES/CHANHASSEN MN
1100 PM CST SAT DEC 10 2016


NOTE: "FAIR" INDICATES FEW OR NO CLOUDS BELOW 12,000 FEET WITH NO
SIGNIFICANT WEATHER AND/OR OBSTRUCTIONS TO VISIBILITY. N/A MEANS
CURRENT SKY AND/OR WEATHER CONDITIONS ARE NOT AVAILABLE.

MNZ060>063-068>070-110600-
   Twin Cities Metro

CITY           SKY/WX    TMP DP  RH WIND       PRES   REMARKS
TWIN CITIES    LGT SNOW  14  10  84 E7        30.18F FOG     WCI   4
ST PAUL        LGT SNOW  14  11  87 E7        30.21S FOG     WCI   4
CRYSTAL        LGT SNOW  13   8  81 E8        30.17F VSB 1   WCI   2
BLAINE         LGT SNOW  16  10  79 E8        30.17F WCI   5
LAKEVILLE      LGT SNOW  12  10  92 E8        30.15F WCI   1
EDEN PRAIRIE   LGT SNOW  14   9  80 E9        30.15F VSB 1   WCI   2
SOUTH ST PAUL  LGT SNOW  15  11  85 E5        30.18F WCI   7
LAKE ELMO      LGT SNOW  14  12  92 E5        30.19F WCI   6
$$
MNZ001>005-007-008-013>017-022>024-027-028-110600-
   Northwest Minnesota

CITY           SKY/WX    TMP DP  RH WIND       PRES   REMARKS
BEMIDJI        CLOUDY    -3  -6  86 E6        30.15F WCI -15
HALLOCK        CLOUDY    -8 -13  77 E9        30.21F WCI -25
ROSEAU         CLOUDY   -17 -24  70 CALM      30.23F
WARROAD        CLOUDY   -11 -17  77 CALM      30.23F
THIEF RVR FALL CLOUDY    -8 -12  83 E9        30.18F WCI -25
CROOKSTON      CLOUDY    -6  -9  84 E9        30.19F WCI -22
FOSSTON        CLOUDY    -8 -13  77 E5        30.14F WCI -19
DETROIT LAKES    N/A      5   1  85 E5        30.10F WCI  -4
MOORHEAD       MIX PCPN   3   0  85 NE7       30.14F WCI  -9
PARK RAPIDS    CLOUDY     4  -3  73 E7        30.13F WCI  -8
$$
MNZ006-009>011-018-025>026-110600-
   North Central Minnesota

CITY           SKY/WX    TMP DP  RH WIND       PRES   REMARKS
BAUDETTE       CLOUDY    -7 -11  83 NE3       30.22F
FLAG ISLAND    CLOUDY    -2  -6  84 E3        30.24
INTL FALLS     CLOUDY   -13 -18  78 CALM      30.24S
WASKISH        CLOUDY    -8  -9  92 E3        30.20F
BIG FORK       MOCLDY   -15 -20  76 CALM      30.20S
LONGVILLE      CLOUDY     1  -2  85 E3        30.17F
GRAND RAPIDS   CLOUDY    -4  -6  91 E3        30.21F
CRANE LAKE     CLOUDY   -15 -17  91 CALM      30.27S
ORR            CLOUDY   -15 -20  76 CALM      30.18F
COOK           CLOUDY   -15 -18  84 CALM      30.22S
$$
MNZ012-019>021-037-110600-
   Northeast Minnesota

CITY           SKY/WX    TMP DP  RH WIND       PRES   REMARKS
DULUTH         CLOUDY     4  -2  76 CALM      30.19S
ELY            CLOUDY   -13 -17  84 CALM      30.21F
HIBBING        CLOUDY   -13 -17  82 CALM      30.21S
EVELETH        CLOUDY    -3  -8  79 E3        30.22S
DULUTH HARBOR  CLOUDY    10   3  72 CALM      30.28S
TWO HARBORS    FLURRIES   7   0  72 CALM      30.22R
SILVER BAY     CLOUDY     3  -2  78 CALM      30.22S
GRAND MARAIS     N/A      7  -2  66 NW7       30.28F WCI  -5
G MARAIS ARPRT CLOUDY    -6 -11  77 N6        30.17S WCI -18
$$
MNZ029>031-032-039>041-046>048-054>057-064-110600-
   West Central Minnesota

CITY           SKY/WX    TMP DP  RH WIND       PRES   REMARKS
FERGUS FALLS   FLURRIES   7   1  78 E7        30.15F WCI  -5
WHEATON        LGT SNOW  10   9  92 E13       30.09F WCI  -5
MORRIS         LGT SNOW  10   7  85 E17       30.06F WCI  -7
ALEXANDRIA     CLOUDY     9   4  80 E13       30.09F HAZE    WCI  -7
ELBOW LAKE     LGT SNOW   8   4  84 SE15      30.08F WCI  -9
WADENA         FLURRIES   7   1  78 E6        30.11F WCI  -3
GLENWOOD       LGT SNOW   9   7  92 E15       30.09F WCI  -8
APPLETON       LGT SNOW  12   9  85 E15       30.07S WCI  -4
BENSON         LGT SNOW  10   9  92 SE8       30.08F WCI  -1
ORTONVILLE     LGT SNOW  10   7  85 E13       30.05F WCI  -5
MADISON        LGT SNOW  14  10  85 E13       30.06S WCI   0
WILLMAR        LGT SNOW  12  10  92 E14       30.09F WCI  -3
$$
MNZ033>034-036-042>043-049>051-058-059-110600-
   Central Minnesota

CITY           SKY/WX    TMP DP  RH WIND       PRES   REMARKS
ST CLOUD       LGT SNOW  11   7  84 E9        30.15F FOG     WCI  -2
PAYNESVILLE    LGT SNOW  11  10  95 NE9       30.11F WCI  -2
AITKIN         MIX PCPN   9   0  66 E6        30.17S WCI  -1
PINE RIVER     LGT SNOW   5   0  78 NE5       30.19S WCI  -4
BRAINERD       LGT SNOW   8   3  80 NE3       30.17F
LONG PRAIRIE   FLURRIES   9   5  85 NE8       30.12F WCI  -4
LITTLE FALLS   LGT SNOW  10   5  79 E3        30.16F
LITCHFIELD     LGT SNOW  12  10  92 E10       30.11F WCI  -1
BUFFALO        LGT SNOW  12   9  87 NE9       30.16F WCI   0
MAPLE LAKE     LGT SNOW  13  11  91 E8        30.15F WCI   2
HUTCHINSON     LGT SNOW  13  10  89 E12G17    30.11F WCI  -1
$$
MNZ037-044-045-052-053-110600-
   East Central Minnesota

CITY           SKY/WX    TMP DP  RH WIND       PRES   REMARKS
PRINCETON      LGT SNOW  12   9  85 E6        30.17F WCI   3
MORA           FLURRIES  12   9  85 E5        30.20F WCI   4
CAMBRIDGE      LGT SNOW  14   7  73 E3        30.18F
RUSH CITY      CLOUDY    10   9  92 E5        30.21F WCI   2
MOOSE LAKE     CLOUDY     9   1  72 NE3       30.20S
HINCKLEY       FLURRIES  12   9  85 E6        30.20F WCI   3
CLOQUET        CLOUDY     3   0  85 CALM      30.20S
MCGREGOR       CLOUDY     7   1  78 E6        30.19F WCI  -3
$$
MNZ071>073-080-081-089-090-097-098-110600-
   Southwest Minnesota

CITY           SKY/WX    TMP DP  RH WIND       PRES   REMARKS
MONTEVIDEO     LGT SNOW  10   9  92 SE13      30.07F WCI  -5
GRANITE FALLS  LGT SNOW  14  11  87 E13       30.07F WCI   0
CANBY          LGT SNOW  12  10  89 CALM      30.04F VSB 1
MARSHALL       LGT SNOW  12  10  92 SE13      30.02F FOG     WCI  -3
REDWOOD FALLS  LGT SNOW  13   9  84 E14       30.06F VSB 3/4 WCI  -2
OLIVIA         LGT SNOW  16  12  86 E12G17    30.06F WCI   3
PIPESTONE      LGT SNOW  16  12  86 SE14      29.93F WCI   1
WINDOM         LGT SNOW  16  12  86 MISG      30.01F
WORTHINGTON    LGT SNOW  17  15  92 E13       29.97F FOG     WCI   4
JACKSON        LGT SNOW  19  16  86 E14       30.01F WCI   6
TRACY          LGT SNOW  14  12  91 E12       30.01F WCI   1
SLAYTON        LGT SNOW  13  11  92 E10       29.99F WCI   0
$$
MNZ065>067-074>077-082>085-091>093-110600-
   South Central Minnesota

CITY           SKY/WX    TMP DP  RH WIND       PRES   REMARKS
MANKATO        LGT SNOW  15  12  88 E12       30.10F FOG     WCI   2
NEW ULM        LGT SNOW  14  10  85 E10G16    30.08F WCI   1
ST JAMES       LGT SNOW  18  16  93 E12       30.07F WCI   5
FAIRMONT       LGT SNOW  19  18  93 E15       30.05S FOG     WCI   5
GLENCOE        LGT SNOW  13  12  94 NE8       30.12F WCI   2
FARIBAULT      LGT SNOW  14  10  85 E5        30.13F WCI   6
OWATONNA       LGT SNOW  16  10  79 E13       30.10F WCI   2
WASECA         LGT SNOW  18  14  86 E10       30.11S WCI   6
ALBERT LEA     LGT SNOW  21  19  93 SE10G16   30.08F WCI  10
$$
MNZ078>079-086>088-094>096-110600-
   Southeast Minnesota

CITY           SKY/WX    TMP DP  RH WIND       PRES   REMARKS
ROCHESTER      LGT SNOW  14  12  92 E10       30.12F VSB 1   WCI   1
RED WING       LGT SNOW  16  10  79 E7        30.18F WCI   6
STANTON        LGT SNOW  16  12  85 E8        30.14F WCI   5
DODGE CENTER   LGT SNOW  12  10  92 E10       30.11F WCI  -1
WINONA         LGT SNOW  18  14  86 SE7       30.20F WCI   8
AUSTIN         LGT SNOW  18  14  86 SE12      30.10F VSB 1   WCI   5
PRESTON        LGT SNOW  14  12  90 SE7       30.13F WCI   4
$$
ABBREVIATIONS USED IN REMARKS
   TC - TEMPERATURES IN CELSIUS
  WCI - WIND CHILL INDEX
   HX - HEAT INDEX
  VSB - VISIBILITY
$$




USA.gov is the U.S. government's official web portal to all federal, state and local government web resources and services.